Home   Weather   Talcahuano   Past weeks

Flag for Chile Past Weather in Talcahuano, Chile — Yesterday and Last 2 Weeks

Now
68 °F

Passing clouds.


Feels Like: 68 °F
Forecast: 56 / 70 °F
Wind: 6 mph from Southwest

Location: Concepcion Airport

Current Time: Jan 16, 2017 at 12:28:55 pm

Latest Report: Jan 16, 2017 at 11:00 am


Visibility: N/A

Pressure: 30.01 "Hg

Humidity: 60%

Dew Point: 54 °F

Location of TalcahuanoLocation

Past Weather in Talcahuano — Graph

°F

Talcahuano Temperature Yesterday

Maximum temperature yesterday: 73 °F (at 3:00 pm)
Minimum temperature yesterday: 52 °F (at 5:00 am)
Average temperature yesterday: 62 °F

High & Low Weather Summary for the Past Weeks

 TemperatureHumidityPressure
High77 °F (Jan 12, 3:00 pm)100% (Jan 8, 11:00 pm)30.09 "Hg (Jan 8, 11:00 pm)
Low48 °F (Jan 4, 7:00 am)40% (Jan 5, 11:00 am)29.86 "Hg (Jan 5, 4:00 pm)
Average64 °F71%29.99 "Hg
* Reported Jan 1 11:00 am — Jan 16 11:00 am, Talcahuano, Weather by CustomWeather, © 2017

Note: Actual official high and low records may vary slightly from our data, if they occured in-between our weather recording intervals... More about our weather records

Advertising

Talcahuano Weather History for the Previous 24 Hours

Scroll right to see more
 ConditionsComfort  
Time TempWeatherWind HumidityBarometerVisibility
11:00 am
Mon, Jan 16
68 °FPassing clouds.6 mph60%30.01 "HgN/A
10:00 am64 °FPassing clouds.5 mph68%30.01 "HgN/A
9:00 am59 °FPassing clouds.5 mph82%29.98 "HgN/A
8:00 am55 °FSunny.No wind82%29.98 "Hg10 mi
7:00 am54 °FPassing clouds.5 mph88%29.95 "HgN/A
6:00 am54 °FClear.7 mph88%29.95 "Hg10 mi
5:00 am54 °FClear.12 mph88%29.95 "Hg10 mi
4:00 am55 °FClear.9 mph82%29.92 "Hg10 mi
3:00 am55 °FClear.9 mph82%29.95 "Hg10 mi
2:00 am55 °FPassing clouds.5 mph82%29.95 "HgN/A
1:00 am57 °FClear.10 mph82%29.95 "Hg10 mi
12:00 am59 °FClear.10 mph77%29.92 "Hg10 mi
11:00 pm
Sun, Jan 15
61 °FClear.13 mph68%29.92 "Hg10 mi
10:00 pm61 °FClear.15 mph77%29.92 "Hg10 mi
9:00 pm64 °FSunny.12 mph68%29.92 "Hg10 mi
8:00 pm68 °FSunny.15 mph64%29.92 "Hg10 mi
7:00 pm72 °FSunny.14 mph61%29.92 "Hg10 mi
6:00 pm72 °FSunny.15 mph57%29.92 "Hg10 mi
5:00 pm73 °FPassing clouds.14 mph57%29.92 "HgN/A
4:00 pm73 °FPassing clouds.13 mph57%29.92 "HgN/A
3:00 pm73 °FSunny.10 mph53%29.92 "Hg10 mi
2:00 pm72 °FPassing clouds.9 mph53%29.95 "HgN/A
1:00 pm68 °FPassing clouds.9 mph60%29.95 "HgN/A
12:00 pm66 °FPassing clouds.6 mph64%29.92 "HgN/A
Weather by CustomWeather, © 2017

See weather overviewHow to use our weather pages